Weather Roundup
Issued by NWS Springfield, MO

Home | Current Version | Previous Version | Text Only | Print | Product List | Glossary On
Versions: 1 2 3 4 5 6 7 8 9 10 11 12 13 14 15 16 17 18 19 20 21 22 23 24 25 26 27 28 29 30 31 32 33 34 35 36 37 38 39 40 41 42 43 44 45 46 47 48 49 50
000
NZUS99 KSGF 291207
HRRSGF

HOURLY WEATHER
NATIONAL WEATHER SERVICE SPRINGFIELD MO
700 AM CDT FRI JUL 29 2016

......SGF CWA......

CITY           SKY/WX    TMP DP  RH WIND       PRES   REMARKS
SPRINGFIELD    MOCLDY    71  68  90 CALM      29.99R
6HR MIN TEMP:  71; 6HR MAX TEMP:  73;

JOPLIN         CLOUDY    68  66  93 CALM      29.99R
6HR MIN TEMP:  67; 6HR MAX TEMP:  76;

WEST PLAINS    CLEAR     69  65  86 CALM      30.00R
6HR MIN TEMP:  67; 6HR MAX TEMP:  69;

ROLLA          PTCLDY    68  67  96 CALM      29.97R
6HR MIN TEMP:  66; 6HR MAX TEMP:  70;

OSAGE BEACH    CLOUDY    70  69  97 CALM      29.98R
BRANSON        PTCLDY    70  70 100 CALM      30.00R

......SURROUNDING SGF CWA......

CITY           SKY/WX    TMP DP  RH WIND       PRES   REMARKS
CHANUTE        CLOUDY    69  67  93 NW3       29.99R
PARSONS        CLOUDY    69  67  93 CALM      29.99S
COFFEYVILLE    CLOUDY    70  69  97 CALM      29.99R
EMPORIA        CLOUDY    68  67  96 CALM      30.01R
GROVE OK       PTCLDY    73  73 100 CALM      29.99R
ROGERS AR      FOG       72  71  97 CALM      30.01S VSB 1/2
SILOAM SPRINGS CLOUDY    72  64  78 N3        30.00R
HARRISON AR    MOCLDY    72  70  93 MISG      29.99R
NEAR YELLVILLE CLEAR     72  68  88 CALM      29.94R

......KANSAS AND MISSOURI......

CITY           SKY/WX    TMP DP  RH WIND       PRES   REMARKS
KANSAS CTY INT CLOUDY    69  63  81 N5        30.01R
DOWNTOWN KC    CLOUDY    72  64  76 NE6       29.99R
COLUMBIA       CLOUDY    70  68  93 CALM      29.98R
SEDALIA        MOCLDY    73  70  90 NE3       29.99R
ST JOSEPH      MOCLDY    68  65  90 N3        30.01R
ST LOUIS       MOSUNNY   75  67  76 E3        29.93R
SPIRIT OF STL  PTCLDY    72  70  93 CALM      29.93R
KIRKSVILLE     CLEAR     66  63  90 N3        29.98R
WICHITA        LGT RAIN  71  68  90 SW7       30.03R
TOPEKA         CLOUDY    67  66  97 NW3       30.01R
OLATHE         CLOUDY    69  66  90 NE3       30.00R

......TENNESSEE......

CITY           SKY/WX    TMP DP  RH WIND       PRES   REMARKS
MEMPHIS        CLOUDY    77  72  84 S9        29.95F
NASHVILLE      PTSUNNY   77  73  88 S6        29.98R

......ARKANSAS.......

CITY           SKY/WX    TMP DP  RH WIND       PRES   REMARKS
FAYETTEVILLE   CLOUDY    73  73 100 CALM      29.99R
FT SMITH       CLEAR     78  72  81 W3        29.97R
LITTLE ROCK    CLOUDY    76  72  87 SW12      29.96R FOG

......OKLAHOMA.......

CITY           SKY/WX    TMP DP  RH WIND       PRES   REMARKS
TULSA          MOCLDY    73  69  87 NW3       29.97R
PONCA CITY     LGT RAIN  72  59  63 NW6       30.05R
MCALESTER      CLEAR     75  72  90 S5        30.00R
OKLAHOMA CITY  TSTM      68  66  93 N31G52    30.08R FOG

......IOWA............

CITY           SKY/WX    TMP DP  RH WIND       PRES   REMARKS
DES MOINES     CLOUDY    66  61  84 N6        29.98R
QUAD CITIES    CLOUDY    72  68  87 CALM      29.91R

......ILLINOIS........

CITY           SKY/WX    TMP DP  RH WIND       PRES   REMARKS
QUINCY         CLEAR     66  66 100 NW5       29.94R
CHICAGO        PTSUNNY   71  68  90 N6        29.92R




USA.gov is the U.S. government's official web portal to all federal, state and local government web resources and services.